• In Germany
  • List of Countries
  • For 7 days
  • Water Temperature
  • Satellite Maps
  • Weather Map
  • Weather Widgets
  • user-avatar
    Login

    Hourly Weather Nakhchivan

    Today, 17 August, Thursday

    Time Temperature Precipitation Wind Pressure Humidity
    00:00 +26°C° 0 mm 1 mps 687 mmHg 53%
    01:00 +26°C° 0 mm 1 mps 687 mmHg 54%
    02:00 +25°C° 0 mm 1 mps 687 mmHg 54%
    03:00 +24°C° 0 mm 1 mps 687 mmHg 57%
    04:00 +25°C° 0 mm 1 mps 687 mmHg 56%
    05:00 +25°C° 0 mm 1 mps 687 mmHg 55%
    06:00 +25°C° 0 mm 1 mps 687 mmHg 54%
    07:00 +26°C° 0 mm 1 mps 687 mmHg 49%
    08:00 +27°C° 0 mm 1 mps 687 mmHg 44%
    09:00 +29°C° 0 mm 1 mps 687 mmHg 39%
    10:00 +30°C° 0 mm 1 mps 687 mmHg 36%
    11:00 +32°C° 0 mm 2 mps 687 mmHg 32%
    12:00 +34°C° 0 mm 2 mps 687 mmHg 29%
    13:00 +35°C° 0.1 mm 3 mps 686 mmHg 28%
    14:00 +36°C° 0.1 mm 3 mps 686 mmHg 26%
    15:00 +36°C° 0.1 mm 4 mps 686 mmHg 25%
    16:00 +36°C° 0.3 mm 4 mps 686 mmHg 27%
    17:00 +35°C° 0.3 mm 4 mps 685 mmHg 29%
    18:00 +34°C° 0.3 mm 4 mps 685 mmHg 31%
    19:00 +33°C° 0 mm 4 mps 685 mmHg 34%
    20:00 +31°C° 0 mm 3 mps 686 mmHg 37%
    21:00 +30°C° 0 mm 3 mps 686 mmHg 40%
    22:00 +29°C° 0 mm 3 mps 686 mmHg 41%
    23:00 +28°C° 0 mm 2 mps 686 mmHg 43%

    Tomorrow, 18 August, Friday

    Time Temperature Precipitation Wind Pressure Humidity
    00:00 +28°C° 0 mm 2 mps 686 mmHg 44%
    01:00 +27°C° 0 mm 2 mps 686 mmHg 45%
    02:00 +27°C° 0 mm 2 mps 686 mmHg 46%
    03:00 +26°C° 0 mm 2 mps 686 mmHg 47%
    04:00 +26°C° 0 mm 1 mps 686 mmHg 47%
    05:00 +26°C° 0 mm 1 mps 686 mmHg 47%
    06:00 +26°C° 0 mm 1 mps 687 mmHg 47%
    07:00 +27°C° 0 mm 1 mps 687 mmHg 43%
    08:00 +29°C° 0 mm 1 mps 687 mmHg 38%
    09:00 +30°C° 0 mm 1 mps 687 mmHg 33%
    10:00 +32°C° 0 mm 1 mps 687 mmHg 30%
    11:00 +34°C° 0 mm 2 mps 687 mmHg 27%
    12:00 +35°C° 0 mm 2 mps 687 mmHg 24%
    13:00 +36°C° 0 mm 2 mps 687 mmHg 22%
    14:00 +37°C° 0 mm 3 mps 686 mmHg 20%
    15:00 +38°C° 0 mm 3 mps 686 mmHg 18%
    16:00 +37°C° 0 mm 3 mps 686 mmHg 19%
    17:00 +37°C° 0 mm 4 mps 686 mmHg 20%
    18:00 +36°C° 0 mm 4 mps 686 mmHg 21%
    19:00 +35°C° 0 mm 3 mps 687 mmHg 24%
    20:00 +33°C° 0 mm 3 mps 687 mmHg 28%
    21:00 +30°C° 0 mm 3 mps 687 mmHg 32%
    22:00 +30°C° 0 mm 2 mps 687 mmHg 33%
    23:00 +29°C° 0 mm 2 mps 687 mmHg 34%

    Day after tomorrow, 19 August, Saturday

    Time Temperature Precipitation Wind Pressure Humidity
    00:00 +28°C° 0 mm 2 mps 688 mmHg 36%
    01:00 +28°C° 0 mm 2 mps 688 mmHg 37%
    02:00 +27°C° 0 mm 2 mps 688 mmHg 38%
    03:00 +26°C° 0 mm 2 mps 688 mmHg 39%
    04:00 +26°C° 0 mm 2 mps 688 mmHg 40%
    05:00 +26°C° 0 mm 1 mps 688 mmHg 40%
    06:00 +26°C° 0 mm 1 mps 688 mmHg 40%
    07:00 +28°C° 0 mm 1 mps 689 mmHg 36%
    08:00 +29°C° 0 mm 2 mps 689 mmHg 31%
    09:00 +31°C° 0 mm 2 mps 689 mmHg 26%
    10:00 +34°C° 0 mm 2 mps 689 mmHg 23%
    11:00 +35°C° 0 mm 2 mps 689 mmHg 20%
    12:00 +36°C° 0 mm 3 mps 689 mmHg 18%
    13:00 +37°C° 0 mm 3 mps 689 mmHg 17%
    14:00 +38°C° 0 mm 3 mps 689 mmHg 16%
    15:00 +38°C° 0 mm 4 mps 688 mmHg 15%
    16:00 +38°C° 0 mm 4 mps 688 mmHg 16%
    17:00 +37°C° 0 mm 4 mps 688 mmHg 17%
    18:00 +37°C° 0 mm 5 mps 688 mmHg 19%
    19:00 +35°C° 0 mm 4 mps 688 mmHg 22%
    20:00 +33°C° 0 mm 4 mps 689 mmHg 25%
    21:00 +31°C° 0 mm 3 mps 689 mmHg 28%
    22:00 +30°C° 0 mm 3 mps 689 mmHg 29%
    23:00 +29°C° 0 mm 2 mps 689 mmHg 31%

    20 August, Sunday

    Time Temperature Precipitation Wind Pressure Humidity
    00:00 +28°C° 0 mm 2 mps 689 mmHg 32%
    01:00 +28°C° 0 mm 2 mps 689 mmHg 33%
    02:00 +27°C° 0 mm 2 mps 689 mmHg 35%
    03:00 +27°C° 0 mm 1 mps 689 mmHg 36%
    04:00 +27°C° 0 mm 1 mps 689 mmHg 36%
    05:00 +27°C° 0 mm 1 mps 689 mmHg 37%
    06:00 +26°C° 0 mm 1 mps 689 mmHg 37%
    07:00 +28°C° 0 mm 1 mps 689 mmHg 33%
    08:00 +30°C° 0 mm 1 mps 689 mmHg 29%
    09:00 +32°C° 0 mm 1 mps 690 mmHg 25%
    10:00 +34°C° 0 mm 2 mps 689 mmHg 22%
    11:00 +35°C° 0 mm 2 mps 689 mmHg 20%
    12:00 +37°C° 0 mm 2 mps 689 mmHg 18%
    13:00 +38°C° 0 mm 3 mps 689 mmHg 17%
    14:00 +38°C° 0 mm 3 mps 688 mmHg 16%
    15:00 +39°C° 0 mm 3 mps 688 mmHg 15%
    16:00 +40°C° 0 mm 4 mps 688 mmHg 16%
    17:00 +38°C° 0 mm 4 mps 688 mmHg 17%
    18:00 +37°C° 0 mm 4 mps 688 mmHg 18%
    19:00 +36°C° 0 mm 3 mps 688 mmHg 21%
    20:00 +34°C° 0 mm 3 mps 688 mmHg 25%
    21:00 +31°C° 0 mm 2 mps 688 mmHg 29%
    22:00 +30°C° 0 mm 2 mps 688 mmHg 30%
    23:00 +30°C° 0 mm 2 mps 688 mmHg 31%

    21 August, Monday

    Time Temperature Precipitation Wind Pressure Humidity
    00:00 +29°C° 0 mm 2 mps 688 mmHg 32%
    01:00 +28°C° 0 mm 2 mps 688 mmHg 33%
    02:00 +28°C° 0 mm 2 mps 688 mmHg 33%
    03:00 +27°C° 0 mm 1 mps 688 mmHg 34%
    04:00 +27°C° 0 mm 1 mps 688 mmHg 34%
    05:00 +27°C° 0 mm 1 mps 688 mmHg 34%
    06:00 +27°C° 0 mm 1 mps 688 mmHg 34%
    07:00 +29°C° 0 mm 1 mps 688 mmHg 29%
    08:00 +31°C° 0 mm 1 mps 688 mmHg 25%
    09:00 +32°C° 0 mm 1 mps 688 mmHg 21%
    10:00 +34°C° 0 mm 1 mps 688 mmHg 19%
    11:00 +36°C° 0 mm 2 mps 688 mmHg 17%
    12:00 +37°C° 0 mm 2 mps 688 mmHg 14%
    13:00 +38°C° 0 mm 2 mps 687 mmHg 13%
    14:00 +39°C° 0 mm 3 mps 687 mmHg 12%
    15:00 +39°C° 0 mm 3 mps 687 mmHg 11%
    16:00 +39°C° 0 mm 3 mps 687 mmHg 12%
    17:00 +38°C° 0 mm 3 mps 686 mmHg 13%
    18:00 +37°C° 0 mm 3 mps 686 mmHg 14%
    19:00 +36°C° 0 mm 3 mps 687 mmHg 17%
    20:00 +34°C° 0 mm 2 mps 687 mmHg 21%
    21:00 +31°C° 0 mm 2 mps 687 mmHg 24%
    22:00 +31°C° 0 mm 2 mps 687 mmHg 26%
    23:00 +30°C° 0 mm 2 mps 687 mmHg 27%

    22 August, Tuesday

    Time Temperature Precipitation Wind Pressure Humidity
    00:00 +29°C° 0 mm 2 mps 687 mmHg 28%
    01:00 +29°C° 0 mm 2 mps 686 mmHg 29%
    02:00 +28°C° 0 mm 2 mps 686 mmHg 29%
    03:00 +28°C° 0 mm 1 mps 686 mmHg 30%
    04:00 +28°C° 0 mm 1 mps 686 mmHg 30%
    05:00 +28°C° 0 mm 1 mps 686 mmHg 30%
    06:00 +28°C° 0 mm 1 mps 686 mmHg 30%
    07:00 +30°C° 0 mm 1 mps 687 mmHg 26%
    08:00 +32°C° 0 mm 1 mps 687 mmHg 22%
    09:00 +34°C° 0 mm 1 mps 687 mmHg 18%
    10:00 +36°C° 0 mm 2 mps 687 mmHg 17%
    11:00 +38°C° 0 mm 2 mps 687 mmHg 15%
    12:00 +39°C° 0 mm 2 mps 686 mmHg 14%
    13:00 +40°C° 0 mm 3 mps 686 mmHg 13%
    14:00 +42°C° 0 mm 3 mps 686 mmHg 12%
    15:00 +43°C° 0 mm 4 mps 685 mmHg 11%
    16:00 +42°C° 0 mm 4 mps 685 mmHg 12%
    17:00 +41°C° 0 mm 4 mps 685 mmHg 13%
    18:00 +41°C° 0 mm 4 mps 685 mmHg 14%
    19:00 +38°C° 0 mm 3 mps 685 mmHg 17%
    20:00 +36°C° 0 mm 3 mps 685 mmHg 20%
    21:00 +35°C° 0 mm 3 mps 685 mmHg 23%
    22:00 +34°C° 0 mm 3 mps 685 mmHg 24%
    23:00 +32°C° 0 mm 2 mps 685 mmHg 26%
    Show more